Regional Weather Roundup
Issued by NWS

Home | Current Version | Previous Version | Text Only | Print | Product List | Glossary Off
Versions: 1 2 3 4 5 6 7 8 9 10 11 12 13 14 15 16 17 18 19 20 21 22 23 24 25 26 27 28 29 30 31 32 33 34 35 36 37 38 39 40 41 42 43 44 45 46 47 48 49 50

000
ASUS43 KFSD 222002
RWRSD

WEATHER ROUNDUP FOR SOUTH DAKOTA
NATIONAL WEATHER SERVICE SIOUX FALLS SD
300 PM CDT TUE JUL 22 2014

NOTE: "FAIR" INDICATES FEW OR NO CLOUDS BELOW 12,000 FEET WITH NO
SIGNIFICANT WEATHER AND/OR OBSTRUCTIONS TO VISIBILITY.


SDZ001>005-009-010-012>017-222100-
NORTHWEST AND NORTH CENTRAL SOUTH DAKOTA

CITY           SKY/WX    TMP DP  RH WIND       PRES   REMARKS
BUFFALO          N/A     86  59  39 SE8       30.15S
FAITH            N/A     82  59  45 E9        30.21S
MOBRIDGE       SUNNY     83  60  45 MISG      30.18R
$$

SDZ012>016-024>037-041>051-057-063-072>074-222100-
SOUTHWEST AND SOUTH CENTRAL SOUTH DAKOTA

CITY           SKY/WX    TMP DP  RH WIND       PRES   REMARKS
RAPID CTY ARPT SUNNY     85  63  47 SE12G17   30.23R
PIERRE         SUNNY     86  57  37 E9        30.17R
CUSTER         MOSUNNY   80  57  45 E14       30.36S
ELLSWORTH AFB  MOSUNNY   86  58  38 SE10      30.23R
PHILIP         SUNNY     85  61  44 E10       30.20R
PINE RIDGE     SUNNY     85  62  46 E7        30.24S
WINNER         FAIR      84  63  49 MISG      30.20R
$$

SDZ004>011-016>023-039-040-222100-
NORTHEAST SOUTH DAKOTA

CITY           SKY/WX    TMP DP  RH WIND       PRES   REMARKS
ABERDEEN       SUNNY     79  61  53 NE13      30.17R
WATERTOWN      PTSUNNY   79  56  45 NE13G25   30.16R
SISSETON         N/A     79  59  50 N14       30.14R
$$

SDZ017-020-022-023-036>040-048>070-222100-
SOUTHEAST SOUTH DAKOTA

CITY           SKY/WX    TMP DP  RH WIND       PRES   REMARKS
SIOUX FALLS    MOSUNNY   81  63  54 NE12G20   30.14R
HURON          SUNNY     81  60  48 N13       30.16R
CHAMBERLAIN    SUNNY     83  59  43 NE8       30.19R
MITCHELL       MOSUNNY   83  62  49 NE7G17    30.16R
YANKTON        CLOUDY    81  66  61 N10       30.13S
$$

ABBREVIATIONS USED IN REMARKS
   TC - TEMPERATURE IN CELSIUS
  WCI - WIND CHILL INDEX
   HX - HEAT INDEX
  VSB - VISIBILITY




USA.gov is the U.S. government's official web portal to all federal, state and local government web resources and services.